Theta_e
308 308 310 309 308 308 308 308 308 305 304 304 303 303 301 302 306 305 301 301 302 301 305 307 307 306 306 310 312 311 315 316 316 312 314 312 313 312 311 312 312 313 317 319 318
309 309 309 309 310 311 312 313 311 307 306 305 303 303 301 303 308 305 302 301 301 303 306 306 306 305 304 309 310 312 314 315 312 311 313 311 310 310 310 310 309 310 311 314 314
309 310 310 311 312 313 314 314 314 313 308 305 304 303 301 305 311 305 302 301 303 304 305 306 306 305 306 310 311 311 311 310 312 310 310 310 309 307 308 308 307 307 308 312 312
313 313 314 315 315 315 315 315 315 314 306 303 303 303 301 308 311 304 302 302 304 305 305 306 306 305 306 308 308 312 310 311 310 310 309 309 307 307 305 307 307 304 305 310 310
315 315 316 316 316 316 316 316 316 315 305 302 303 302 306 308 306 303 302 302 305 306 305 306 307 306 308 307 308 309 309 308 307 306 307 307 306 306 304 303 303 303 303 304 308
315 315 316 316 316 316 316 316 315 315 304 302 302 302 308 304 303 302 302 302 305 306 306 307 307 307 307 307 307 306 306 305 304 305 305 306 304 304 304 303 303 301 301 300 301
315 315 315 315 315 316 316 315 315 314 303 302 301 305 307 304 303 301 302 304 304 305 306 306 306 306 305 305 305 304 304 302 304 304 304 301 303 302 302 301 301 302 302 301 299
315 314 315 315 315 315 315 315 315 310 303 302 302 306 303 303 302 302 301 303 303 304 305 305 306 305 305 304 304 305 304 305 304 303 303 302 306 304 302 302 302 301 300 300 300
314 314 314 314 314 314 314 315 312 304 302 302 303 304 303 301 301 302 301 302 303 304 304 304 304 303 302 301 302 304 306 304 307 302 303 302 303 303 301 301 300 300 299 299 298
313 313 314 313 314 314 315 313 308 303 303 303 303 303 301 301 303 301 302 301 302 302 304 304 302 301 300 302 309 306 305 305 306 303 303 303 302 303 302 301 301 299 299 298 298
309 311 312 313 313 314 310 308 308 308 304 306 305 304 302 302 302 302 301 301 302 302 303 304 302 303 301 301 305 306 305 305 303 302 303 302 301 303 302 300 300 299 298 297 298
310 308 307 312 313 311 306 301 300 299 306 303 302 301 302 301 301 301 300 301 302 302 302 301 303 303 302 302 303 302 303 303 303 303 302 301 302 303 302 304 301 299 297 299 298
303 306 308 308 313 311 305 302 301 301 304 306 301 302 302 301 302 301 300 300 301 302 301 303 304 301 302 302 302 302 303 303 304 301 302 300 304 306 304 303 300 297 298 297 297
301 301 305 305 312 311 306 305 302 301 304 310 302 302 301 300 301 300 299 301 301 301 300 301 300 301 301 302 301 303 301 301 302 300 302 299 308 306 304 302 300 297 295 296 297
300 299 298 303 311 309 307 305 302 303 315 306 300 299 299 300 301 301 299 299 301 300 300 303 300 300 301 301 301 302 300 300 302 299 294 298 300 304 302 304 302 299 297 296 297
299 299 299 305 309 309 307 303 302 310 316 308 299 300 300 300 300 299 300 299 299 301 300 300 299 300 300 300 301 299 301 302 301 297 298 297 301 306 303 302 300 300 298 297 297
298 298 298 302 308 308 305 305 312 315 307 306 302 300 300 300 300 299 300 299 297 298 300 301 300 299 300 301 301 301 301 299 304 302 307 301 298 304 301 299 298 299 298 298 297
297 296 301 304 307 308 305 309 312 298 301 307 302 302 304 301 300 301 300 300 299 301 303 304 308 300 299 300 302 299 301 305 305 310 309 299 303 305 300 298 299 299 298 298 298
297 296 301 307 306 306 307 312 301 302 307 306 305 308 307 301 302 300 300 301 301 299 306 305 305 300 300 299 300 301 301 301 296 286 300 302 303 302 299 299 298 298 298 299 299
296 297 299 304 306 304 306 307 302 302 307 306 310 309 305 304 303 302 303 302 301 300 301 303 309 300 300 300 300 299 299 304 305 307 303 304 302 305 299 299 298 299 300 300 299
296 296 300 302 305 306 307 303 302 302 307 309 307 309 307 306 301 300 303 303 300 299 298 299 304 301 299 300 301 299 300 301 306 309 309 306 309 303 299 299 300 300 301 300 299
295 291 299 303 303 301 305 295 303 305 305 307 305 305 306 306 302 302 301 302 299 298 299 299 301 298 301 297 296 299 300 302 310 307 301 303 305 302 298 300 300 300 300 300 298
296 291 297 300 303 302 297 302 302 304 305 306 306 304 304 306 302 301 297 300 298 298 299 300 297 294 301 301 298 298 300 300 299 299 301 304 304 299 298 299 300 299 298 294 295
296 294 286 297 298 300 294 298 297 300 302 304 305 303 303 304 302 296 300 302 298 295 302 300 298 299 303 301 300 300 298 299 300 297 301 304 304 303 301 299 299 299 296 293 293
295 295 289 285 296 296 299 295 293 297 300 302 303 303 303 302 303 300 298 302 298 298 300 297 294 296 295 301 302 302 300 298 299 300 301 303 303 303 302 300 299 298 298 294 292
295 295 292 287 292 295 296 296 298 299 299 299 302 303 302 304 303 298 302 302 303 298 298 296 293 294 294 291 299 304 303 301 298 299 299 300 301 301 301 298 297 296 294 292 291
293 293 295 294 293 292 295 296 296 297 297 299 299 300 300 301 301 300 299 300 301 299 296 297 295 297 294 289 290 301 302 302 303 299 301 303 303 300 298 298 297 293 294 293 291
Wind_Speed
9 10 11 11 12 13 13 13 13 13 12 12 11 10 11 9 3 2 1 4 6 9 7 7 3 1 1 1 1 3 3 2 4 6 3 3 1 1 2 2 3 2 6 4 14
9 10 11 12 12 13 14 15 16 15 15 14 12 11 10 8 3 2 2 6 7 7 3 7 2 4 2 1 1 3 3 7 4 3 2 1 0 2 2 2 4 4 2 2 18
10 10 11 11 12 13 14 15 17 19 19 15 12 10 9 5 2 2 4 5 4 4 2 2 2 1 1 2 2 3 5 3 2 2 1 2 3 1 2 5 8 6 4 5 6
10 11 12 13 13 14 16 18 20 22 20 14 9 8 6 0 2 1 6 4 3 3 1 1 1 2 1 3 2 2 6 3 3 1 2 2 3 6 7 7 1 7 1 5 6
12 13 13 13 14 15 17 18 20 22 18 14 7 3 1 1 4 2 6 4 1 0 2 1 2 2 3 2 1 3 3 2 2 4 5 3 6 6 10 11 9 7 6 5 8
15 15 15 16 16 17 18 19 19 20 14 9 4 1 2 1 2 3 5 3 5 2 2 3 2 2 1 2 2 2 4 7 5 2 3 3 4 2 5 1 3 6 11 9 8
15 17 17 17 17 18 18 19 19 19 10 5 2 1 1 5 1 3 4 3 5 4 2 2 1 2 2 1 3 2 5 6 1 1 3 1 8 9 8 6 8 6 5 6 10
17 15 15 16 17 19 19 18 19 14 6 3 1 1 5 2 2 2 2 3 2 2 2 2 2 2 1 1 4 2 3 4 1 2 1 2 9 5 4 2 7 8 7 6 5
14 15 15 14 16 20 20 19 17 4 2 2 1 1 5 1 2 1 1 1 2 2 2 2 2 2 3 4 4 4 4 5 4 3 1 2 8 5 3 6 9 9 8 7 6
11 14 16 17 17 19 20 19 6 2 3 2 0 2 2 2 2 1 1 2 3 1 2 3 4 2 3 3 5 5 4 4 5 1 1 2 15 15 8 7 12 9 9 9 8
15 15 16 17 19 19 19 4 4 2 1 6 3 2 1 1 2 1 1 2 2 3 4 1 3 8 10 7 1 2 3 4 2 2 2 4 9 20 7 6 9 8 8 7 7
15 17 17 18 18 11 9 4 2 1 6 3 4 2 2 2 1 2 2 4 3 5 4 3 8 4 3 4 5 4 2 5 3 2 1 4 12 19 7 3 2 6 7 2 5
18 18 19 19 10 6 6 3 3 3 2 5 3 3 3 5 3 4 5 4 4 5 6 6 1 4 3 3 4 3 4 3 3 4 3 7 8 4 2 4 5 7 4 5 6
21 21 18 20 2 8 3 5 4 2 2 5 3 2 2 2 3 2 1 2 2 7 6 5 2 4 3 3 5 2 2 3 2 4 3 4 4 4 5 6 6 6 7 6 7
23 22 19 11 11 3 4 6 5 1 4 1 2 1 2 3 2 0 1 2 4 5 6 5 4 3 3 4 4 3 3 4 3 4 3 4 3 7 4 5 5 4 5 5 5
24 24 20 5 6 3 6 6 1 3 8 1 3 4 3 2 2 1 1 2 1 2 0 2 0 2 3 3 2 6 5 5 4 3 2 4 4 4 2 4 5 2 3 5 6
25 26 15 9 2 5 6 1 2 5 3 4 3 3 3 5 3 5 4 4 5 4 5 1 3 2 3 4 3 3 5 2 4 2 5 3 3 7 6 3 3 6 5 4 6
29 27 9 9 4 6 1 2 7 3 6 2 1 3 3 5 2 4 3 3 7 3 3 6 4 7 4 4 5 5 6 5 6 3 3 3 5 3 4 5 1 4 5 5 4
29 21 8 3 6 3 1 5 7 6 3 4 1 2 4 3 3 4 6 5 6 10 7 4 1 2 2 1 2 4 4 3 7 1 3 2 4 4 2 2 4 7 7 4 3
23 11 7 4 3 3 1 13 7 6 3 2 6 5 5 3 4 4 6 4 4 5 1 4 2 0 1 1 0 2 3 3 1 1 3 4 5 4 7 7 7 6 6 3 3
10 4 2 5 2 2 8 6 5 4 3 5 3 3 6 4 6 3 4 3 4 4 2 3 2 1 2 6 7 2 2 1 2 2 4 1 5 5 11 9 9 7 4 2 3
7 3 3 2 2 2 11 5 2 3 2 4 3 5 6 6 6 4 7 6 4 6 7 5 4 4 4 1 0 1 4 6 4 5 0 2 5 3 10 8 9 7 4 2 3
2 3 3 2 4 8 4 3 1 2 3 4 4 6 4 6 1 6 4 2 3 5 7 6 1 2 7 3 1 4 5 3 4 3 6 5 5 2 5 6 7 5 3 4 3
2 3 4 2 2 3 2 7 4 3 5 5 4 3 3 4 3 3 3 1 2 3 1 3 2 6 8 5 4 5 6 5 5 3 5 8 3 4 6 8 6 4 6 5 5
2 4 3 3 6 7 2 1 2 4 5 2 4 9 6 4 3 6 3 1 0 2 2 4 5 4 3 2 2 3 4 9 10 6 7 5 13 12 8 9 8 7 2 4 7
3 2 2 2 2 4 8 6 16 6 3 5 8 2 7 14 7 4 5 4 6 2 5 1 2 2 4 3 1 5 9 8 7 7 11 9 18 11 8 6 7 9 5 6 6
8 4 3 3 2 4 11 10 11 7 10 16 11 4 7 10 6 7 7 4 5 8 7 6 6 4 6 2 3 8 17 13 11 6 10 12 23 5 6 9 8 7 8 8 7
Wind_Direction
354 357 357 1 1 4 6 5 356 348 337 331 334 338 338 336 337 350 54 326 327 336 334 325 99 123 125 111 114 125 71 209 234 170 240 352 5 317 337 289 301 231 158 254 172
357 359 358 359 360 5 4 360 354 348 339 330 328 331 332 338 318 312 338 350 346 346 7 38 36 1 43 97 19 106 142 219 216 185 226 316 196 306 337 244 263 283 259 147 163
357 357 359 357 355 355 354 353 351 346 337 321 314 317 328 337 324 218 341 343 332 336 13 351 332 302 104 108 197 165 204 219 266 190 160 268 268 275 265 253 230 218 221 173 170
349 350 350 349 349 348 345 346 346 344 338 325 305 311 326 79 238 89 339 343 328 324 0 41 74 104 120 205 178 215 244 228 263 223 186 228 302 288 207 233 199 241 155 171 179
343 337 335 335 336 337 336 338 338 339 335 331 315 315 74 15 266 317 338 342 313 235 53 100 134 130 196 224 282 217 293 307 297 314 270 305 246 244 263 250 262 260 269 229 221
328 323 320 322 325 327 327 327 329 336 329 332 328 347 99 266 160 332 347 11 31 45 49 46 133 137 159 255 186 327 306 281 287 289 267 264 266 48 260 255 278 231 244 232 221
312 316 313 312 315 319 319 322 324 328 316 318 321 124 114 233 233 331 344 34 32 27 80 51 78 170 137 260 325 334 325 323 252 279 221 29 287 232 249 313 284 288 283 236 224
317 324 327 324 317 317 317 317 320 317 293 292 274 188 236 216 221 287 350 161 45 58 82 76 58 117 96 339 14 358 61 348 315 77 342 82 273 273 358 253 276 273 276 271 243
324 333 330 327 323 320 317 317 317 300 244 242 218 188 271 205 196 207 44 85 355 84 66 58 47 75 47 96 359 4 243 210 304 57 331 165 274 269 61 350 293 284 273 256 261
341 339 340 334 326 324 324 321 300 245 187 161 29 2 274 207 157 282 338 23 80 41 42 67 54 73 49 111 223 205 225 251 248 12 33 234 271 276 291 275 275 276 258 253 249
358 353 349 342 335 336 336 343 7 337 204 200 182 247 153 190 203 147 93 85 76 72 187 33 107 215 210 201 135 137 195 247 275 81 295 249 278 283 307 267 293 299 291 259 243
345 341 343 341 338 342 350 57 55 261 309 249 228 189 169 168 226 202 152 147 160 196 127 59 229 205 208 172 201 216 201 255 276 89 28 9 287 280 291 267 330 330 4 50 102
344 332 334 341 347 6 18 49 0 328 272 293 208 191 190 163 225 210 162 156 172 179 192 178 174 132 162 167 164 203 187 225 224 349 54 338 288 349 313 355 41 23 22 58 102
346 339 328 339 342 351 4 351 347 354 23 247 226 260 120 128 260 151 158 162 198 205 171 235 273 171 159 209 146 232 158 112 90 63 230 5 276 325 349 18 37 40 56 73 82
340 335 334 332 304 338 326 330 326 62 296 131 180 117 102 166 136 151 66 54 204 188 124 235 167 169 170 208 169 205 101 101 91 95 65 321 84 270 352 359 5 70 90 90 105
335 336 332 309 295 286 323 325 358 47 246 209 132 169 137 179 204 111 76 47 329 127 10 217 278 156 179 88 90 140 81 55 65 95 14 246 133 286 354 304 305 79 103 127 133
335 329 311 277 257 327 325 342 15 216 330 273 212 162 193 187 195 174 170 188 168 113 210 180 204 172 154 103 41 99 92 338 355 14 219 151 68 241 300 309 240 143 148 151 128
335 333 316 237 208 305 127 66 217 239 244 343 198 139 204 156 215 180 176 246 225 221 138 165 274 172 178 196 173 176 163 163 205 197 246 6 238 224 245 300 61 115 119 101 121
331 339 310 295 232 230 155 214 218 205 201 176 97 207 227 183 167 158 210 223 219 186 192 156 204 30 48 50 135 179 192 143 105 65 49 236 275 328 81 107 117 98 83 94 153
330 323 294 298 237 150 180 224 215 204 167 136 206 186 211 211 165 173 192 203 207 194 238 187 87 134 119 73 346 196 163 103 7 146 261 290 280 213 188 180 142 115 70 17 348
319 339 313 287 210 198 223 231 250 242 215 199 239 216 222 189 190 212 222 277 183 156 146 138 101 192 118 196 182 144 226 239 116 140 174 218 256 219 174 181 151 152 177 176 303
324 329 323 332 195 246 230 202 316 287 193 277 171 225 211 198 201 229 222 222 179 158 167 178 130 169 194 334 351 258 214 178 146 219 219 140 273 147 166 169 152 177 197 254 294
276 261 283 211 233 230 292 280 268 274 241 213 241 210 198 212 245 206 211 320 123 167 166 185 246 53 345 1 40 217 200 154 104 81 192 145 253 18 161 178 188 181 165 230 209
258 293 309 222 295 221 209 241 243 231 261 273 272 175 161 232 228 264 258 270 159 175 135 112 146 167 188 191 133 191 195 179 149 145 168 223 249 200 203 225 251 253 216 174 209
223 240 202 272 245 241 283 156 228 230 225 243 258 213 183 222 219 231 255 291 344 232 102 134 200 162 261 285 179 220 197 185 201 190 182 203 220 238 228 230 242 237 230 196 222
275 251 259 245 249 213 227 238 243 233 219 258 243 324 223 233 215 206 191 190 209 114 162 148 216 114 320 359 358 273 251 210 206 220 245 265 266 251 259 205 225 239 241 219 233
220 250 253 257 216 206 233 237 250 222 249 243 250 246 249 255 250 251 220 224 219 174 183 162 138 139 254 6 83 286 237 212 219 196 203 233 249 266 232 229 235 235 211 220 227